Weather reports worldwide

Advertisment
Ploce, Croatia (14462): temperature & dewpoint: 16.09.2018 23:00:00 - 22.09.2018 23:00:00 (CEST)Ploce, Croatia (14462): wind speed: 16.09.2018 23:00:00 - 22.09.2018 23:00:00 (CEST)Ploce, Croatia (14462): wind direction: 16.09.2018 23:00:00 - 22.09.2018 23:00:00 (CEST)Ploce, Croatia (14462): reduced air pressure: 16.09.2018 23:00:00 - 22.09.2018 23:00:00 (CEST)Ploce, Croatia (14462): visibility: 16.09.2018 23:00:00 - 22.09.2018 23:00:00 (CEST)
Date & Time tt [°C] td [°C] ff [km/h] ff [kn] dd ppp [hPa] vv [km]
22.09.2018 23:00:00 - - - - - - -
22.09.2018 22:00:00 23,4 20,9 0 0 N 1018,3 20
22.09.2018 21:00:00 24,8 21,0 7 4 WSW 1018,0 20
22.09.2018 20:00:00 25,1 20,3 11 6 WSW 1017,5 20
22.09.2018 19:00:00 - - - - - - -
22.09.2018 18:00:00 - - - - - - -
22.09.2018 17:00:00 - - - - - - -
22.09.2018 16:00:00 - - - - - - -
22.09.2018 15:00:00 28,4 19,2 14 8 WSW 1017,2 20
22.09.2018 14:00:00 28,8 17,6 11 6 SSW 1017,4 20
22.09.2018 13:00:00 28,2 17,4 11 6 S 1017,9 20
22.09.2018 12:00:00 27,2 18,1 7 4 SSE 1017,9 20
22.09.2018 11:00:00 25,8 17,8 11 6 ESE 1018,3 20
22.09.2018 10:00:00 23,8 17,2 7 4 ESE 1018,5 18
22.09.2018 09:00:00 21,2 16,0 7 4 E 1018,3 15
22.09.2018 08:00:00 19,8 16,3 7 4 E 1017,6 15
22.09.2018 07:00:00 - - - - - - -
22.09.2018 06:00:00 - - - - - - -
22.09.2018 05:00:00 - - - - - - -
22.09.2018 04:00:00 - - - - - - -
22.09.2018 03:00:00 - - - - - - -
22.09.2018 02:00:00 - - - - - - -
22.09.2018 01:00:00 - - - - - - -
22.09.2018 00:00:00 - - - - - - -
21.09.2018 23:00:00 - - - - - - -
21.09.2018 22:00:00 22,8 18,6 4 2 E 1016,2 20
21.09.2018 21:00:00 23,4 18,9 4 2 ESE 1015,9 20
21.09.2018 20:00:00 24,8 18,0 7 4 E 1015,6 20
21.09.2018 19:00:00 - - - - - - -
21.09.2018 18:00:00 - - - - - - -
21.09.2018 17:00:00 - - - - - - -
21.09.2018 16:00:00 - - - - - - -
21.09.2018 15:00:00 30,0 13,7 18 10 S 1015,4 20
21.09.2018 14:00:00 30,0 14,5 18 10 S 1015,8 20
21.09.2018 13:00:00 29,6 15,3 18 10 S 1016,1 20
21.09.2018 12:00:00 29,8 14,0 7 4 SSE 1016,2 20
21.09.2018 11:00:00 28,3 15,3 7 4 ESE 1016,4 20
21.09.2018 10:00:00 26,3 15,8 4 2 ESE 1016,4 20
21.09.2018 09:00:00 24,3 16,8 7 4 ESE 1016,1 20
21.09.2018 08:00:00 22,4 17,3 11 6 E 1015,7 20
21.09.2018 07:00:00 - - - - - - -
21.09.2018 06:00:00 - - - - - - -
21.09.2018 05:00:00 - - - - - - -
21.09.2018 04:00:00 - - - - - - -
21.09.2018 03:00:00 - - - - - - -
21.09.2018 02:00:00 - - - - - - -
21.09.2018 01:00:00 - - - - - - -
21.09.2018 00:00:00 - - - - - - -
20.09.2018 23:00:00 - - - - - - -
20.09.2018 22:00:00 25,0 20,3 7 4 E 1016,1 20
20.09.2018 21:00:00 25,1 20,3 11 6 NW 1016,1 20
20.09.2018 20:00:00 25,2 20,1 14 8 NNW 1015,9 20
20.09.2018 19:00:00 - - - - - - -
20.09.2018 18:00:00 - - - - - - -
20.09.2018 17:00:00 - - - - - - -
20.09.2018 16:00:00 - - - - - - -
20.09.2018 15:00:00 30,0 14,1 18 10 W 1016,3 30
20.09.2018 14:00:00 30,2 15,3 14 8 SW 1016,9 30
20.09.2018 13:00:00 30,0 13,4 11 6 SSW 1017,5 30
20.09.2018 12:00:00 28,1 15,8 7 4 S 1018,0 30
20.09.2018 11:00:00 26,8 15,9 7 4 SE 1018,2 30
20.09.2018 10:00:00 24,5 16,0 7 4 ENE 1018,6 30
20.09.2018 09:00:00 21,8 16,7 7 4 E 1018,3 30
20.09.2018 08:00:00 19,5 16,2 4 2 E 1018,3 30
20.09.2018 07:00:00 - - - - - - -
20.09.2018 06:00:00 - - - - - - -
20.09.2018 05:00:00 - - - - - - -
20.09.2018 04:00:00 - - - - - - -
20.09.2018 03:00:00 - - - - - - -
20.09.2018 02:00:00 - - - - - - -
20.09.2018 01:00:00 - - - - - - -
20.09.2018 00:00:00 - - - - - - -
19.09.2018 23:00:00 - - - - - - -
19.09.2018 22:00:00 23,1 18,4 7 4 ESE 1018,4 20
19.09.2018 21:00:00 25,2 18,6 11 6 NW 1018,4 20
19.09.2018 20:00:00 25,5 17,6 7 4 NW 1017,9 20
19.09.2018 19:00:00 - - - - - - -
19.09.2018 18:00:00 - - - - - - -
19.09.2018 17:00:00 - - - - - - -
19.09.2018 16:00:00 - - - - - - -
19.09.2018 15:00:00 29,4 16,2 14 8 WSW 1018,1 20
19.09.2018 14:00:00 29,5 15,3 14 8 SW 1018,5 20
19.09.2018 13:00:00 29,2 16,3 11 6 SSW 1018,8 20
19.09.2018 12:00:00 28,2 16,1 7 4 SW 1019,1 20
19.09.2018 11:00:00 26,1 15,5 7 4 SSE 1019,3 20
19.09.2018 10:00:00 23,5 15,5 7 4 ESE 1019,6 20
19.09.2018 09:00:00 21,2 16,2 7 4 E 1019,6 20
19.09.2018 08:00:00 19,5 15,8 4 2 E 1019,5 20
19.09.2018 07:00:00 - - - - - - -
19.09.2018 06:00:00 - - - - - - -
19.09.2018 05:00:00 - - - - - - -
19.09.2018 04:00:00 - - - - - - -
19.09.2018 03:00:00 - - - - - - -
19.09.2018 02:00:00 - - - - - - -
19.09.2018 01:00:00 - - - - - - -
19.09.2018 00:00:00 - - - - - - -
18.09.2018 23:00:00 - - - - - - -
18.09.2018 22:00:00 23,0 19,3 7 4 E 1019,0 20
18.09.2018 21:00:00 25,0 18,7 4 2 WSW 1019,0 20
18.09.2018 20:00:00 25,5 18,0 11 6 W 1018,8 20
18.09.2018 19:00:00 - - - - - - -
18.09.2018 18:00:00 - - - - - - -
18.09.2018 17:00:00 - - - - - - -
18.09.2018 16:00:00 - - - - - - -
18.09.2018 15:00:00 29,5 14,8 11 6 SW 1018,8 30
18.09.2018 14:00:00 29,2 14,4 11 6 S 1019,2 30
18.09.2018 13:00:00 29,1 13,2 11 6 SSW 1019,7 30
18.09.2018 12:00:00 - - - - - - -
18.09.2018 11:00:00 26,0 12,9 11 6 E 1020,3 30
18.09.2018 10:00:00 24,0 13,5 7 4 E 1020,4 30
18.09.2018 09:00:00 21,6 13,8 7 4 ESE 1020,4 30
18.09.2018 08:00:00 18,6 14,5 0 0 N 1020,2 30
18.09.2018 07:00:00 - - - - - - -
18.09.2018 06:00:00 - - - - - - -
18.09.2018 05:00:00 - - - - - - -
18.09.2018 04:00:00 - - - - - - -
18.09.2018 03:00:00 - - - - - - -
18.09.2018 02:00:00 - - - - - - -
18.09.2018 01:00:00 - - - - - - -
18.09.2018 00:00:00 - - - - - - -
17.09.2018 23:00:00 - - - - - - -
17.09.2018 22:00:00 22,2 17,4 0 0 N 1019,7 30
17.09.2018 21:00:00 23,8 19,2 4 2 E 1019,5 30
17.09.2018 20:00:00 24,8 19,3 11 6 SSW 1019,2 30
17.09.2018 19:00:00 - - - - - - -
17.09.2018 18:00:00 - - - - - - -
17.09.2018 17:00:00 - - - - - - -
17.09.2018 16:00:00 - - - - - - -
17.09.2018 15:00:00 29,8 11,4 18 10 W 1019,9 30
17.09.2018 14:00:00 30,0 10,3 14 8 SW 1020,2 30
17.09.2018 13:00:00 29,1 9,9 11 6 SSW 1020,8 30
17.09.2018 12:00:00 28,8 12,6 11 6 S 1021,0 30
17.09.2018 11:00:00 26,5 13,4 7 4 S 1021,4 30
17.09.2018 10:00:00 24,5 12,8 7 4 SE 1021,7 30
17.09.2018 09:00:00 22,2 12,2 4 2 E 1021,6 30
17.09.2018 08:00:00 20,0 12,5 7 4 ENE 1021,3 30
17.09.2018 07:00:00 - - - - - - -
17.09.2018 06:00:00 - - - - - - -
17.09.2018 05:00:00 - - - - - - -
17.09.2018 04:00:00 - - - - - - -
17.09.2018 03:00:00 - - - - - - -
17.09.2018 02:00:00 - - - - - - -
17.09.2018 01:00:00 - - - - - - -
17.09.2018 00:00:00 - - - - - - -
16.09.2018 23:00:00 - - - - - - -

tt = temperature
td = dewpoint
ff = wind speed
dd = wind direction
ppp = reduced air pressure
vv = visibility

Next stations